Wind_Speed
36 36 36 36 36 35 34 32 32 32 32 32 31 31 31 31 30 29 28 27 27 26 25 24 24 23 22 21 20 20 20 20 19 18 18 18 17 17 17 16 16 16 16
38 38 38 38 38 38 37 36 34 34 34 33 33 32 32 33 32 31 30 29 28 27 26 26 25 25 24 23 22 22 22 21 21 21 20 20 19 19 19 18 18 18 17
40 39 39 40 40 39 39 38 37 36 36 35 35 35 35 35 34 33 32 31 30 29 28 28 27 27 26 25 25 24 23 23 23 23 22 22 21 21 21 20 20 20 19
41 40 39 40 40 41 40 40 40 39 37 37 37 37 37 36 35 35 34 34 33 32 31 30 29 29 28 27 27 26 26 26 25 25 25 24 23 23 23 22 22 21 21
42 41 41 40 40 40 40 41 40 40 39 39 38 38 38 38 37 37 37 36 35 34 33 32 32 31 30 29 29 28 28 28 28 27 27 27 26 26 25 24 24 24 24
43 43 43 42 42 41 40 40 41 40 40 40 40 40 40 39 39 38 38 37 37 36 36 35 34 33 33 33 32 31 31 31 30 29 29 29 29 29 28 28 27 27 26
45 44 44 44 43 42 41 41 42 42 42 41 42 42 41 41 41 40 39 39 39 38 38 37 37 36 35 35 34 33 33 32 32 32 31 31 30 30 30 30 29 29 28
47 46 46 46 46 44 43 43 43 44 44 44 44 44 43 43 43 42 42 41 40 40 39 39 39 38 37 37 36 35 34 34 33 33 33 33 32 33 33 32 32 31 31
49 48 49 48 48 48 47 47 46 45 45 46 46 46 46 45 44 43 43 43 43 42 42 41 40 40 40 40 39 37 37 36 35 35 35 35 35 35 35 34 34 34 33
51 50 51 51 51 50 49 49 49 48 47 48 48 48 48 47 46 46 45 45 45 45 44 43 42 42 42 42 42 41 40 39 39 38 38 37 37 37 37 37 37 36 36
52 52 53 53 53 54 52 51 50 49 49 49 50 49 49 48 48 48 47 46 46 46 45 45 44 44 44 43 42 42 42 41 41 40 40 40 39 38 38 39 39 38 38
54 53 53 55 55 54 54 54 53 52 52 51 50 50 51 50 49 49 49 48 48 48 47 46 46 46 46 45 44 43 42 42 42 42 42 42 41 40 40 40 40 40 40
55 55 55 55 56 56 55 55 55 54 54 52 51 50 51 51 51 51 50 49 48 48 47 47 47 46 46 46 46 46 45 44 44 44 43 43 43 43 42 42 42 42 42
55 56 56 56 56 57 56 55 55 54 54 54 52 52 52 51 51 52 51 50 49 49 48 48 49 48 47 47 46 47 47 46 46 45 45 44 45 45 45 44 44 43 44
55 55 55 56 57 57 58 56 55 54 55 56 55 54 53 52 52 51 51 51 51 50 50 49 49 50 49 48 47 47 48 48 48 48 47 47 46 46 46 46 46 45 45
55 56 56 56 56 57 58 57 57 57 56 56 56 56 54 53 53 52 51 51 51 52 52 50 50 51 51 50 49 48 49 49 50 50 49 49 49 49 48 48 48 48 48
55 56 56 56 56 56 57 57 57 57 57 56 56 56 55 55 55 54 52 51 51 51 52 52 52 52 51 51 50 50 50 50 51 51 51 52 51 51 51 51 51 51 51
54 55 56 56 56 56 56 56 57 57 57 57 56 57 57 56 56 55 54 53 52 52 53 53 53 52 52 52 52 52 52 51 52 52 53 53 53 53 53 54 53 53 53
54 55 56 57 56 56 56 56 57 57 57 56 56 56 56 56 56 55 55 55 54 54 53 53 53 53 53 53 53 53 53 53 52 53 53 54 54 55 55 55 55 55 55
55 55 56 56 56 56 56 56 57 58 58 57 56 56 56 56 56 55 55 56 56 55 55 54 54 53 53 53 54 54 54 54 53 54 54 54 55 56 57 57 57 57 57
55 56 56 56 55 56 56 57 56 57 57 57 56 56 56 56 57 56 56 56 57 56 56 56 55 54 55 55 55 55 55 54 54 54 55 55 56 57 57 58 58 58 57
54 55 56 56 56 56 57 57 57 56 57 57 57 57 56 57 56 57 57 56 57 56 56 57 57 56 56 56 56 56 55 55 55 55 56 56 56 57 58 58 58 59 58
54 54 55 56 56 56 56 57 57 57 57 57 57 58 57 57 56 56 56 56 57 57 58 58 58 58 57 57 57 57 56 56 56 56 56 56 57 58 59 59 59 59 59
52 53 54 55 56 56 56 56 57 58 57 57 57 57 58 57 56 56 56 56 57 57 59 60 59 59 59 58 58 58 58 57 57 57 57 57 57 58 58 59 59 60 60
50 51 52 53 54 55 55 55 55 56 56 57 57 57 57 56 56 56 56 57 57 57 58 58 59 59 59 58 58 57 57 58 57 57 58 58 58 59 59 59 59 60 61
48 48 48 50 50 52 53 54 54 55 55 56 57 57 57 57 57 57 57 57 57 57 58 58 58 58 58 58 58 58 58 58 57 57 57 58 58 58 59 59 59 59 60
Wind_Direction
245 244 245 245 246 247 247 247 247 248 248 247 247 248 248 247 247 246 246 247 248 248 249 250 250 250 252 253 254 255 256 257 258 258 258 258 260 261 264 269 272 273 274
245 245 245 245 246 247 247 246 246 247 247 247 248 248 248 248 246 246 246 246 247 248 248 250 250 251 253 254 255 256 257 257 258 258 258 258 259 261 264 268 270 272 273
244 245 245 245 246 247 246 247 247 247 247 247 248 247 247 247 246 246 245 245 246 248 249 250 251 252 254 255 255 255 256 258 258 258 258 258 258 261 264 267 269 270 271
244 244 245 245 246 246 247 247 247 247 247 247 248 247 246 246 246 245 244 245 246 247 248 249 251 252 253 255 256 256 257 258 259 259 259 259 260 262 264 266 267 269 270
245 244 245 245 245 246 247 247 247 248 248 247 247 246 245 245 246 246 246 245 246 247 249 250 251 252 253 254 255 256 257 258 259 259 260 260 260 262 263 264 266 267 269
245 245 245 245 245 246 247 247 247 247 248 248 248 246 245 246 246 246 247 246 247 247 249 250 251 252 253 254 255 256 257 258 258 259 261 261 260 261 262 263 265 267 268
245 246 246 246 245 246 248 249 248 248 248 248 248 248 247 247 246 246 247 247 248 248 249 250 252 253 253 254 255 255 257 258 259 260 260 260 261 262 261 262 263 265 266
247 246 246 247 247 247 247 248 248 249 249 249 249 249 249 249 248 248 247 247 248 249 250 251 252 253 254 255 255 255 256 257 259 260 260 260 260 262 262 261 262 264 265
247 246 246 247 248 248 247 248 249 249 249 250 249 249 250 249 248 247 248 248 249 249 251 252 252 253 254 256 255 255 255 256 259 260 260 260 260 260 261 262 263 264 265
247 248 247 247 248 249 249 250 250 251 251 251 250 250 249 249 248 248 248 248 249 250 251 252 254 254 254 255 255 255 255 256 257 258 259 260 260 260 260 261 263 265 266
248 248 247 247 248 249 250 251 251 251 251 250 250 249 249 249 249 249 248 248 250 250 251 252 254 254 254 254 255 256 255 256 256 257 259 259 259 260 261 262 264 265 266
248 248 248 248 249 250 250 251 252 251 251 251 250 249 250 249 249 248 248 249 250 250 251 252 253 254 254 255 255 255 255 255 256 258 258 258 259 260 261 262 264 265 266
249 250 248 248 248 250 250 250 251 251 251 251 251 250 250 249 250 249 248 249 249 250 251 252 252 253 255 255 255 255 255 255 256 257 258 258 259 260 262 263 264 266 267
249 250 250 249 250 249 250 251 250 250 250 251 251 250 250 250 250 249 249 249 250 251 251 253 252 253 254 255 255 255 255 255 255 256 257 258 259 261 262 263 264 266 268
250 250 251 250 250 250 250 251 251 249 248 249 250 249 249 250 250 248 248 250 251 251 252 253 254 253 254 255 256 256 255 256 256 257 257 258 259 261 262 263 264 265 267
251 250 251 251 251 251 251 250 250 249 249 249 249 249 249 249 249 248 248 250 251 251 252 253 254 254 255 255 256 256 257 256 257 258 258 259 259 260 262 263 263 264 266
252 251 251 251 252 252 251 250 250 250 250 249 249 248 248 249 248 248 249 251 251 252 252 252 254 254 254 255 256 257 258 257 258 259 259 260 261 261 262 263 264 264 265
253 253 251 251 252 252 252 251 250 250 251 250 249 249 249 250 249 249 250 251 251 252 253 253 254 255 255 256 257 258 259 258 259 260 261 261 262 262 262 263 264 264 265
252 253 252 252 252 252 252 251 251 250 250 250 250 250 250 251 250 250 251 251 251 252 253 253 254 254 255 256 257 258 259 260 261 261 262 262 262 263 263 263 264 265 266
252 253 252 252 252 252 252 251 251 251 250 250 250 251 251 251 250 251 251 252 252 252 253 254 254 254 255 257 258 259 260 261 262 262 263 263 264 264 264 264 265 266 266
252 252 252 252 252 252 252 251 250 251 250 249 250 251 251 251 251 251 252 253 253 253 253 254 254 255 257 259 260 260 261 262 263 264 265 265 265 265 265 265 266 266 266
252 253 253 252 252 251 251 251 250 250 249 249 250 250 250 251 252 253 253 253 253 253 254 255 256 257 259 260 260 260 261 262 263 264 265 266 266 266 266 266 266 266 267
252 253 253 253 252 251 250 250 249 249 249 250 249 249 249 250 252 253 254 254 253 254 255 255 257 258 259 259 260 261 262 262 263 264 265 265 266 266 266 266 266 267 267
253 254 254 253 251 250 250 250 249 248 248 248 249 249 249 249 251 253 254 254 253 254 255 256 257 258 259 259 259 260 261 262 263 264 265 265 266 266 266 266 266 266 267
255 255 255 253 251 250 250 249 248 247 247 247 248 248 249 249 251 252 253 253 253 254 254 255 256 257 259 259 259 260 261 262 263 263 264 265 266 266 266 266 266 266 267
255 254 254 253 251 249 248 248 248 247 247 247 248 248 249 250 251 252 252 252 252 253 253 254 256 257 258 259 260 261 261 262 263 263 264 266 266 266 266 267 267 267 267
Height
5785 5787 5789 5792 5793 5795 5797 5799 5800 5802 5804 5806 5807 5809 5811 5813 5814 5816 5818 5819 5820 5822 5823 5824 5825 5826 5826 5827 5828 5828 5829 5830 5830 5830 5831 5831 5831 5831 5831 5831 5831 5831 5831
5776 5779 5781 5783 5786 5788 5790 5791 5793 5795 5797 5799 5801 5802 5805 5806 5808 5810 5812 5813 5815 5816 5818 5819 5820 5821 5822 5822 5823 5824 5825 5825 5826 5826 5826 5827 5827 5828 5828 5827 5827 5827 5827
5768 5770 5773 5775 5777 5779 5782 5784 5785 5788 5790 5792 5794 5795 5797 5799 5801 5803 5805 5807 5808 5810 5812 5813 5814 5815 5816 5817 5818 5819 5820 5820 5821 5821 5822 5822 5823 5823 5823 5823 5823 5823 5823
5758 5761 5764 5766 5768 5770 5773 5775 5777 5779 5782 5784 5786 5787 5789 5792 5794 5796 5798 5800 5802 5803 5805 5807 5808 5809 5810 5811 5812 5813 5814 5815 5815 5816 5817 5817 5818 5818 5818 5818 5818 5818 5818
5748 5751 5754 5756 5758 5761 5763 5766 5768 5770 5773 5775 5777 5779 5781 5783 5786 5788 5790 5792 5794 5796 5798 5799 5801 5803 5804 5805 5806 5807 5808 5808 5809 5810 5811 5811 5812 5812 5813 5813 5813 5813 5813
5738 5741 5744 5747 5749 5751 5754 5757 5759 5761 5764 5766 5768 5770 5773 5775 5777 5780 5782 5784 5786 5788 5790 5792 5793 5795 5797 5798 5799 5800 5801 5802 5803 5803 5804 5805 5806 5806 5807 5807 5807 5807 5807
5728 5731 5734 5737 5739 5742 5744 5747 5749 5752 5754 5757 5759 5761 5763 5766 5768 5771 5773 5776 5778 5780 5782 5784 5785 5787 5789 5790 5791 5792 5793 5794 5796 5796 5797 5798 5798 5799 5800 5800 5800 5801 5801
5717 5720 5723 5726 5728 5731 5734 5737 5739 5742 5744 5747 5749 5751 5753 5756 5758 5761 5764 5766 5769 5771 5773 5775 5777 5779 5780 5782 5783 5784 5786 5787 5788 5789 5790 5790 5791 5792 5792 5793 5793 5793 5794
5706 5709 5712 5715 5717 5720 5723 5726 5728 5731 5733 5736 5738 5741 5743 5746 5749 5751 5754 5756 5759 5761 5764 5766 5768 5769 5771 5773 5774 5776 5777 5778 5779 5780 5781 5782 5783 5783 5784 5785 5785 5786 5786
5693 5697 5700 5703 5706 5708 5711 5714 5716 5719 5722 5724 5726 5729 5732 5735 5738 5740 5743 5746 5748 5751 5753 5756 5758 5760 5761 5763 5765 5766 5768 5769 5770 5771 5772 5773 5774 5775 5775 5776 5777 5777 5778
5681 5684 5687 5691 5693 5696 5698 5701 5703 5707 5710 5712 5714 5717 5720 5723 5725 5729 5732 5735 5737 5740 5742 5745 5747 5749 5751 5753 5754 5756 5757 5759 5760 5761 5763 5764 5765 5765 5766 5767 5767 5768 5769
5668 5671 5674 5677 5680 5682 5685 5688 5690 5693 5696 5699 5702 5704 5707 5711 5714 5717 5720 5723 5726 5729 5731 5733 5735 5738 5740 5742 5744 5745 5747 5749 5750 5751 5752 5754 5755 5756 5756 5757 5758 5759 5759
5655 5657 5660 5663 5666 5669 5671 5674 5676 5679 5682 5685 5688 5692 5695 5698 5701 5705 5708 5711 5714 5717 5719 5722 5724 5726 5728 5730 5732 5734 5736 5737 5739 5740 5741 5743 5744 5745 5746 5747 5747 5748 5749
5641 5644 5646 5649 5651 5654 5657 5659 5662 5665 5668 5672 5675 5678 5682 5685 5689 5692 5695 5699 5701 5705 5708 5710 5712 5714 5716 5718 5720 5722 5724 5725 5727 5729 5730 5731 5733 5734 5735 5736 5736 5737 5738
5626 5629 5632 5634 5637 5639 5642 5645 5647 5650 5654 5658 5661 5665 5668 5672 5676 5679 5682 5686 5689 5692 5695 5698 5700 5702 5704 5706 5708 5710 5711 5713 5714 5716 5718 5719 5721 5722 5723 5724 5725 5725 5726
5611 5614 5617 5619 5622 5625 5627 5630 5633 5636 5639 5643 5647 5651 5655 5659 5662 5666 5669 5672 5675 5679 5682 5685 5688 5690 5692 5694 5695 5697 5699 5700 5702 5703 5704 5706 5708 5709 5710 5711 5712 5713 5714
5596 5599 5602 5605 5607 5610 5612 5615 5619 5622 5625 5629 5633 5637 5641 5645 5649 5652 5655 5659 5662 5665 5668 5671 5674 5676 5678 5680 5682 5683 5685 5687 5688 5689 5691 5692 5694 5696 5697 5698 5699 5700 5700
5582 5585 5588 5591 5593 5595 5598 5601 5604 5608 5611 5615 5619 5623 5627 5631 5634 5638 5641 5645 5648 5651 5654 5657 5660 5662 5664 5666 5668 5670 5671 5673 5675 5676 5677 5678 5680 5681 5682 5684 5685 5686 5687
5567 5569 5572 5576 5578 5581 5584 5587 5590 5593 5597 5601 5605 5609 5613 5616 5620 5623 5627 5631 5634 5637 5640 5643 5646 5648 5650 5652 5654 5656 5657 5659 5660 5661 5662 5664 5665 5666 5668 5669 5670 5671 5672
5551 5554 5557 5560 5563 5566 5569 5572 5576 5579 5583 5587 5590 5594 5598 5601 5605 5609 5613 5616 5620 5622 5625 5628 5631 5634 5636 5638 5639 5641 5643 5644 5646 5647 5648 5649 5650 5651 5652 5654 5656 5657 5657
5536 5539 5542 5545 5548 5551 5554 5558 5561 5564 5568 5572 5576 5580 5583 5587 5590 5594 5598 5602 5605 5608 5610 5614 5617 5619 5621 5624 5625 5627 5628 5629 5631 5632 5633 5634 5635 5636 5637 5638 5639 5640 5641
5521 5524 5526 5529 5532 5536 5539 5542 5546 5549 5553 5557 5561 5564 5568 5572 5576 5579 5583 5586 5589 5592 5596 5599 5602 5604 5607 5609 5610 5612 5613 5615 5617 5618 5618 5618 5619 5620 5621 5622 5623 5624 5625
5506 5508 5510 5513 5517 5520 5523 5527 5530 5533 5537 5541 5545 5549 5553 5557 5560 5564 5567 5570 5573 5576 5580 5584 5586 5589 5592 5594 5596 5597 5598 5599 5601 5602 5602 5603 5604 5604 5605 5606 5607 5607 5608
5491 5493 5495 5497 5500 5504 5507 5511 5514 5517 5522 5526 5530 5533 5537 5541 5545 5548 5551 5554 5557 5561 5564 5568 5572 5574 5576 5577 5579 5581 5582 5584 5586 5586 5587 5588 5588 5589 5589 5589 5590 5591 5591
5476 5478 5480 5482 5485 5489 5492 5495 5498 5502 5506 5511 5514 5518 5522 5526 5530 5533 5536 5540 5542 5545 5548 5551 5554 5557 5559 5561 5563 5564 5566 5568 5570 5571 5571 5572 5573 5573 5573 5573 5574 5574 5575
5461 5463 5465 5468 5471 5474 5477 5480 5483 5487 5492 5496 5499 5503 5507 5511 5514 5516 5519 5523 5526 5530 5532 5535 5538 5540 5543 5545 5546 5548 5550 5552 5554 5555 5556 5556 5556 5556 5557 5558 5558 5558 5558